Dewpoint
60 62 64 63 65 64 60 62 62 61 64 65 67 68 67 67 67 68 68 65 66 69 71 71 71 71 71 70 69 69 69 69 69 68 68 68 67 67 66 66 66 66 66
58 58 61 61 59 59 60 57 57 58 59 60 61 65 66 67 68 68 68 67 64 65 68 69 70 70 72 71 69 69 69 69 69 68 68 67 67 66 66 66 65 65 66
53 55 57 58 57 57 55 53 53 53 53 53 53 55 59 63 64 65 67 67 67 63 64 66 68 69 70 70 70 69 68 68 68 68 68 68 67 66 66 66 65 65 65
52 51 50 52 53 52 51 51 51 50 50 50 51 52 51 51 53 61 62 64 67 67 64 64 65 66 67 68 70 70 69 68 68 68 68 67 67 66 66 65 65 65 64
51 51 50 52 53 51 50 50 49 49 47 47 46 46 48 50 50 49 50 54 62 65 66 65 63 64 65 66 67 69 69 69 69 68 68 67 67 66 66 65 65 65 65
50 50 49 51 51 49 49 49 50 49 49 48 45 44 48 50 49 48 48 48 50 54 61 64 64 64 61 64 66 67 67 68 68 69 68 68 67 66 65 65 65 64 64
51 50 49 50 50 49 49 49 49 49 48 48 46 45 47 47 48 50 48 50 48 47 55 60 60 59 57 60 61 64 66 67 67 68 67 67 66 66 65 65 65 64 64
50 47 50 49 50 49 49 48 49 48 47 48 46 46 44 44 46 49 49 51 52 52 51 57 57 57 56 56 55 55 56 56 59 60 61 63 66 65 65 65 65 64 64
48 49 49 49 50 50 48 48 48 48 46 47 48 47 43 43 44 48 46 47 49 49 50 49 48 49 49 53 56 55 55 55 54 53 53 55 58 61 64 65 65 64 64
46 48 49 48 49 49 49 48 48 48 48 45 46 47 48 47 44 43 44 45 48 44 45 49 47 48 48 50 53 55 53 52 54 55 53 53 54 54 57 60 63 64 64
45 46 47 48 48 49 48 48 48 48 48 46 46 46 46 45 45 44 42 43 46 46 47 47 48 48 48 48 50 51 52 51 52 55 55 53 53 53 53 55 56 58 60
44 45 46 47 48 48 48 47 47 46 46 46 46 46 45 44 43 42 41 40 41 42 45 44 45 46 47 49 49 49 51 50 51 53 54 55 53 52 53 53 54 55 57
43 43 45 47 47 47 47 47 46 46 46 45 45 45 45 45 44 44 42 41 41 42 42 44 43 44 44 46 49 48 47 47 49 51 52 53 54 53 53 53 53 52 52
43 44 45 46 46 46 47 47 46 46 45 45 45 44 44 45 45 45 43 42 39 39 41 41 45 44 46 47 48 47 46 45 46 46 48 50 51 52 52 53 53 53 51
41 43 45 45 45 46 46 45 44 43 44 44 43 43 43 43 44 44 44 44 42 39 38 39 40 42 45 45 45 44 44 45 44 44 44 45 47 50 51 52 52 52 52
45 44 44 44 44 44 44 45 44 44 44 44 43 43 43 43 43 44 43 42 41 41 39 40 40 41 41 41 43 43 43 45 44 43 43 44 45 47 48 48 49 50 50
45 44 44 43 42 41 42 42 43 44 43 43 43 42 42 42 41 42 41 41 39 39 37 38 39 39 41 41 41 41 42 41 41 42 42 43 44 44 46 46 46 47 47
43 43 43 42 42 41 41 41 40 40 41 40 41 41 41 40 40 41 41 39 38 38 37 35 36 37 38 39 39 38 38 38 39 40 43 42 43 43 43 43 43 43 44
40 40 40 40 40 41 41 42 42 41 40 39 41 41 40 40 39 39 39 39 38 37 37 37 35 37 37 36 36 37 38 39 39 40 41 41 42 42 42 42 42 42 43
32 33 35 37 37 37 37 39 40 41 41 41 41 41 40 40 38 37 37 38 37 36 36 35 35 35 36 36 36 35 35 38 38 37 38 38 40 40 41 41 41 41 41
28 29 29 30 30 30 28 32 32 33 34 34 38 40 41 42 40 37 35 35 36 35 35 34 33 33 33 33 33 34 34 35 35 35 35 36 39 40 41 42 43 43 43
27 28 27 27 28 24 28 31 32 31 30 31 32 35 39 39 40 37 36 35 34 34 33 32 32 31 31 33 34 33 33 32 30 35 35 34 35 35 36 38 39 39 40
26 26 26 25 25 26 29 32 32 28 29 30 30 32 33 35 38 39 36 35 35 34 32 33 32 31 30 31 32 32 32 32 31 33 34 32 34 34 36 36 37 39 39
24 23 24 24 24 23 29 29 30 27 28 29 30 30 31 34 35 38 37 34 34 35 35 34 34 34 34 34 33 33 33 32 31 32 34 31 34 34 36 37 39 40 41
21 22 21 22 23 23 28 28 28 26 27 26 27 27 28 32 33 36 37 34 34 35 35 36 36 35 35 35 35 34 32 30 28 30 34 34 33 34 35 38 40 39 39
20 21 21 23 25 23 26 27 26 24 25 26 26 25 27 29 33 34 36 34 33 33 33 32 31 33 35 35 34 34 33 31 30 29 34 33 33 33 32 36 37 39 39
Lifted_Index
-4 -4 -3 -3 -3 -3 -3 -3 -3 -3 -3 -3 -4 -4 -4 -4 -4 -4 -4 -4 -4 -4 -5 -5 -6 -6 -6 -5 -4 -4 -4 -4 -4 -3 -3 -2 -2 -1 -1 -1 -2 -2 -2
-2 -2 -1 -2 -2 -1 -0 -0 -0 -0 -0 -1 -1 -2 -3 -4 -4 -4 -4 -4 -4 -4 -4 -4 -5 -5 -6 -6 -5 -4 -4 -4 -4 -3 -3 -2 -2 -1 -1 -1 -1 -1 -1
2 3 3 2 2 3 5 5 4 4 4 4 3 2 1 -1 -2 -3 -3 -3 -4 -4 -4 -4 -4 -4 -5 -5 -5 -4 -4 -4 -4 -4 -3 -3 -2 -2 -1 -1 -1 -1 -0
6 7 7 6 6 7 8 8 8 7 7 7 6 6 5 4 2 1 -0 -1 -3 -3 -4 -3 -3 -3 -3 -4 -4 -4 -4 -4 -4 -3 -3 -3 -2 -2 -1 -1 -1 -1 -0
9 9 8 8 8 8 9 9 8 9 9 8 8 8 7 7 6 5 4 2 0 -1 -2 -3 -3 -3 -3 -3 -3 -3 -4 -4 -4 -3 -3 -2 -2 -2 -1 -1 -1 -1 -0
8 8 8 8 9 9 9 9 9 9 9 9 9 8 8 7 7 7 6 5 4 2 0 -1 -1 -2 -2 -2 -2 -2 -2 -3 -3 -3 -3 -2 -2 -2 -1 -1 -1 -1 -1
7 7 7 8 9 10 10 10 10 10 10 10 9 9 8 7 7 7 6 6 6 5 3 1 0 0 1 1 0 -0 -1 -2 -2 -3 -3 -2 -2 -2 -1 -1 -1 -1 -1
6 6 7 8 9 10 10 10 10 10 10 10 10 9 8 7 7 7 6 6 5 5 4 3 3 3 3 4 3 2 1 0 -1 -1 -2 -2 -2 -2 -1 -1 -1 -1 -1
7 8 9 9 10 10 10 10 11 10 10 10 10 9 8 8 8 7 7 6 6 6 6 5 6 6 6 6 6 5 4 3 2 1 0 -0 -1 -1 -1 -2 -1 -1 -1
10 10 10 10 10 10 10 10 10 10 10 10 10 10 9 9 9 8 8 8 8 7 8 7 8 8 8 8 7 7 7 6 5 4 3 3 2 1 -0 -1 -1 -1 -0
12 11 11 10 10 10 10 10 11 11 10 10 10 10 9 9 9 9 9 9 9 9 9 9 9 9 9 9 8 8 8 8 8 8 7 6 6 5 3 2 1 0 1
12 11 11 10 10 10 10 10 11 11 11 10 10 10 10 10 10 10 10 9 9 10 10 9 9 9 9 9 9 9 9 9 9 9 9 9 9 8 8 6 5 4 4
11 11 10 10 10 9 10 10 10 10 10 10 10 10 10 10 10 10 10 10 10 10 10 10 10 10 10 10 9 9 9 9 9 10 10 10 10 10 10 9 9 8 8
11 11 10 10 10 9 9 9 10 10 10 10 10 10 10 10 10 10 10 10 10 10 10 10 10 10 10 10 10 10 10 10 10 10 11 12 11 11 11 11 11 11 11
10 10 10 10 9 9 9 9 9 10 10 10 11 11 10 10 10 10 10 10 10 10 10 10 10 10 10 10 10 11 11 11 11 12 12 12 12 12 12 12 12 12 12
9 9 9 9 9 9 9 9 9 9 10 10 10 10 10 10 10 10 10 10 10 10 10 10 10 10 11 11 11 11 11 12 13 13 13 13 12 12 12 12 13 13 13
9 9 9 9 9 9 9 9 9 9 9 9 9 9 10 9 9 9 9 10 10 10 11 11 10 11 11 12 12 12 12 13 13 13 13 12 12 12 12 12 13 13 13
9 9 9 9 9 9 9 9 8 8 8 9 9 9 9 9 9 9 9 10 10 10 11 11 11 11 12 12 12 12 13 13 13 13 12 12 12 12 11 11 12 12 12
10 11 10 10 10 9 9 8 8 8 8 8 8 8 8 8 8 9 9 9 10 10 10 11 11 12 12 13 13 13 13 13 12 12 12 11 11 11 11 10 10 10 10
12 12 12 11 10 10 9 9 8 8 8 8 7 7 7 7 7 8 8 9 9 10 10 11 11 12 12 12 12 12 12 12 11 11 11 11 10 10 9 9 9 9 9
13 13 12 11 11 10 9 9 9 9 9 8 8 7 7 6 6 7 7 8 9 9 10 10 11 11 11 11 11 11 11 10 10 10 10 9 9 8 8 8 7 7 7
12 12 11 11 10 10 10 9 10 10 10 9 9 8 7 6 6 6 7 7 8 9 9 10 10 10 11 11 11 10 10 9 9 9 9 8 8 7 7 7 6 6 6
12 11 11 11 10 10 10 10 10 10 10 10 10 9 8 7 6 6 6 7 8 8 9 10 10 10 10 11 10 10 9 9 8 8 8 7 7 6 6 6 6 6 5
11 11 11 11 11 11 10 10 10 10 10 10 10 10 9 8 7 6 6 7 7 8 9 9 10 10 10 10 10 10 9 8 8 8 8 7 6 6 6 6 6 5 5
11 11 11 11 12 11 11 11 11 11 11 11 10 10 10 9 8 7 6 6 7 7 8 9 9 10 10 10 10 9 8 7 7 7 7 7 6 6 6 5 5 5 4
12 12 12 12 12 12 11 11 11 11 10 10 10 10 10 9 8 7 6 6 6 6 7 8 9 10 10 10 10 9 8 7 6 6 7 6 6 6 6 5 5 5 5